Location: Grand Mazuras
(45.9128°N, 1.7636°E)
Time: 06:21:50
(UTC+00:00)

Cosmos 1553 Rocket - Pass Details

Date: 18 April 2021
Orbit: 942 x 1007 km, 82.9° (Epoch: 15 May)

Event Time Altitude Azimuth Distance (km) Brightness Sun altitude
Exits shadow 22:39:08 78° 310° (NW) 969 3.9 -30.6°
Drops below altitude 10° 22:45:00 10° 6° (N) 2,678 7.0 -31.0°
Sets 22:47:31 0° 8° (N) 3,632 7.9 -31.1°
